This is the latest recevied weather packets stored in our database for station/object SR9WXGR. If no packets are shown the sender has not sent any weather packets the latest 10 day(s).
| Time | Temp. | Humidity | Pressure | Rain* | Wind** | Luminosity | Snow |
|---|---|---|---|---|---|---|---|
| 1778074500 | 30° C | 23% | 968 hPa | - | - | - | - |
| 1778070900 | 26.67° C | 25% | 968 hPa | - | - | - | - |
| 1778060101 | 22.78° C | 27% | 969 hPa | - | - | - | - |
| 1778056500 | 21.67° C | 30% | 968 hPa | - | - | - | - |
| 1778052900 | 20.56° C | 34% | 968 hPa | - | - | - | - |
| 1778049301 | 20° C | 34% | 968 hPa | - | - | - | - |
| 1778045701 | 18.89° C | 35% | 968 hPa | - | - | - | - |
| 1778042101 | 17.78° C | 38% | 968 hPa | - | - | - | - |
| 1778038501 | 17.78° C | 35% | 968 hPa | - | - | - | - |
| 1778034901 | 16.67° C | 37% | 968 hPa | - | - | - | - |
| 1778031301 | 15.56° C | 38% | 969 hPa | - | - | - | - |
| 1778027701 | 15.56° C | 40% | 969 hPa | - | - | - | - |
| 1778024101 | 15.56° C | 40% | 969 hPa | - | - | - | - |
| 1778013301 | 17.78° C | 32% | 970 hPa | - | - | - | - |
| 1778009700 | 20° C | 29% | 969 hPa | - | - | - | - |
| 1778006101 | 23.89° C | 23% | 969 hPa | - | - | - | - |
| 1778002500 | 27.78° C | 18% | 969 hPa | - | - | - | - |
| 1777998901 | 27.78° C | 18% | 969 hPa | - | - | - | - |
| 1777995301 | 27.78° C | 18% | 969 hPa | - | - | - | - |
| 1777991700 | 30° C | 15% | 970 hPa | - | - | - | - |
| 1777988101 | 28.89° C | 14% | 970 hPa | - | - | - | - |
| 1777984500 | 26.67° C | 17% | 971 hPa | - | - | - | - |
| 1777980901 | 25.56° C | 18% | 971 hPa | - | - | - | - |
| 1777977300 | 23.89° C | 21% | 971 hPa | - | - | - | - |
| 1777973701 | 22.78° C | 24% | 972 hPa | - | - | - | - |
* Rain since midnight (hover to see other rain measurements)
** Current wind speed in m/s (hover to see current wind gust speed)